Bola Tangkas

Jackpot

Texas Poker Multi Jackpot System

Kini Telah hadir Jackpot SUPER ROYAL FLUSH

Kini Telah hadir Jackpot 2000 (khusus table VIP keatas).

Ikutilah global jackpot yang tersedia di system kami, dengan system jackpot terbaru dan pertama di indonesia, anda dapat membeli jackpot dengan harga 100 rupiah saja dan menangkan hadiahnya hingga puluhan juta rupiah.

Jackpot bukanlah suatu keharusan untuk dibeli, namun kami memberikan suatu fitur tambahan untuk member tercinta dari www.999naga.net.

Terdapat tiga pilihan harga jackpot yang bisa anda beli yaitu :100,500,1000 dan 2000(khusus table VIP Keatas) rupiah.

Hadiah dari Multi jackpot system www.999naga.net

  1. full house x 10 harga jackpot yang anda beli.
      (contoh:anda membeli 1000 maka:1000 X10 = 10.000)
  2. four of kind x 250 harga jackpot yang anda beli
      (contoh:anda membeli 1000 maka:1000 X250 = 250.000)
  3. Straight flush x 1200
      (contoh:anda membeli 1000 maka:1000 X1200 = 1.200.000)
  4. Royal flush x 10000 harga jackpot yang anda beli
      (contoh:anda membeli 1000 maka:1000 X10000 = 10.000.000)
  5. SUPER ROYAL FLUSH x 30000 harga jackpot yang anda beli
      (contoh:anda membeli 1000 maka:1000 X30000 = 30.000.000)

Kondisi kartu

  1. full house adalah kondisi kartu dimana kartu anda dan kartu tengah dengan total 7 kartu bisa mendapatkan nilai 5 kartu dengan kombinasi 1 tris(three of kind) dan 1 pair, contoh 3 kartu 10 dan 2 kartu 5
  2. Four of kind adalah kondisi kartu dimana kartu anda dan kartu tengah dengan total 7 kartu bisa mendapatkan nilai 5 kartu dengan kombinasi 4 kartu yang sama jumlah dan 1 kartu apapun juga contoh anda mendapatkan 4 buah kartu angka 3 dan 1 kartu apapun.
  3. Staright flush adalah kondisi kartu dimana kartu anda dan kartu tengah dengan total 7 kartu bisa mendapatkan nilai 5 kartu dengan kombinasi seri / staright dengan kembang yang sama contoh : urutan kartu dari angka 5, 6, 7, 8 , 9 10 dengan kembang yg sama misalnya as hati
  4. Royal flush adalah kondisi kartu dimana kartu anda dan kartu tengah dengan total 7 kartu bisa mendapatkan nilai 5 kartu dengan kombinasi seri / staright dengan kembang yang sama tetapi kartu tersebut haruslah dimulai dari 10. contoh 10, Queen, Jack, King dan aces dengan kembang yang sama
  5. Super Royal flush adalah kondisi kartu dimana Kedua kartu anda digabung dengan 3 kartu pertama meja haruslah royal flush. contoh kartu anda 10,Queen kembang sama dan 3 kartu pertama meja adalah Jack, King dan aces dengan kembang yang sama

Demikian adalah penjelasan dari Multi Jackpot www.999naga.net terima kasih dan selamat bermain salam hoki dari kami

Texas Poker Jackpot Winner

TOP SUPER ROYAL FLUSH
No.TanggalNamaPriceWin
116/07 23:46AA7C7D8ESuper Royal flush15,000,000
216/07 23:31KOKO_887Super Royal flush60,000,000
316/07 22:35BROTHERPROSuper Royal flush60,000,000
416/07 19:28ODE25Super Royal flush15,000,000
516/07 03:32ANDICKSuper Royal flush3,000,000
TOP ROYAL FLUSH
No.TanggalNamaPriceWin
117/07 01:13ARMOOOYRoyal flush5,000,000
217/07 01:13ASYIF4KURoyal flush5,000,000
317/07 01:02POLKCN21Royal flush500,000
417/07 00:57RAMADPORoyal flush2,000,000
517/07 00:47C5A8EABERoyal flush2,000,000
TOP STRAIGHT FLUSH
No.TanggalNamaPriceWin
117/07 01:25G804WH22NTStraight Flush240,000
217/07 01:24OYEIMORTALStraight Flush240,000
317/07 01:22LUNAU77Straight Flush1,200,000
417/07 01:21BODAL16Straight Flush1,200,000
517/07 01:21CLP1Straight Flush240,000
LATEST JACKPOT
No.TanggalNamaPriceWin
117/07 01:25MITOHA999Full House2,000
217/07 01:25B4RIK10Full House10,000
317/07 01:25ZRX18GTR4ZFull House2,000
417/07 01:25PASID888Full House2,000
517/07 01:25XIXIQUFull House2,000
617/07 01:25NY3DOT70Full House2,000
717/07 01:25IRHDDKBM56Full House10,000
817/07 01:25DEWAPOKER77Full House20,000
917/07 01:25MOLIJACKIEFull House1,000
1017/07 01:25IZ503100Full House1,000
1117/07 01:25G804WH22NTStraight Flush240,000
1217/07 01:24JALI555Full House20,000
1317/07 01:24BOXDEWA88Full House2,000
1417/07 01:24R9V0RQ3X23Full House2,000
1517/07 01:24ARDEN3Full House5,000
1617/07 01:24KODOK803Full House5,000
1717/07 01:24ABUIPINFull House10,000
1817/07 01:24C2D07049Full House10,000
1917/07 01:24AYO200Full House5,000
2017/07 01:24NT3K4N9NDAFull House1,000
2117/07 01:24ZORO36Full House5,000
2217/07 01:24JS757Full House5,000
2317/07 01:24F0E18503Full House2,000
2417/07 01:24T_S_KFull House10,000
2517/07 01:24SIKAT31Full House1,000
2617/07 01:24XSJDEDXSDFFull House1,000
2717/07 01:24JEKOPOPFull House2,000
2817/07 01:24M3T4LIZT14Full House2,000
2917/07 01:24DILFI999Full House10,000
3017/07 01:24A68AN174302Full House5,000
3117/07 01:24BALECOZT88Full House2,000
3217/07 01:24KODIL22Full House5,000
3317/07 01:24ASFLUSFull House2,000
3417/07 01:24C11UHAMMAD693Four Of A Kind50,000
3517/07 01:24USTADGEJULFull House2,000
3617/07 01:24GALHEH03Full House2,000
3717/07 01:24PANGERAN32Full House5,000
3817/07 01:24TEMPOK000Full House1,000
3917/07 01:24DPM982Full House2,000
4017/07 01:24VIASAFITRIFull House1,000
4117/07 01:24HOKICUK69Full House2,000
4217/07 01:24GLGLFFull House2,000
4317/07 01:24HANABI0Full House5,000
4417/07 01:24GOM_BRESSSFull House1,000
4517/07 01:24COURRIER91Full House5,000
4617/07 01:24BROOADAYFull House2,000
4717/07 01:24ARINUGROSFull House2,000
4817/07 01:24JABLAI0185Full House500
4917/07 01:24CIMONCELIFull House2,000
5017/07 01:24VP2VBV9PSZFull House5,000

Domino Multi Jackpot System

Ikutilah global jackpot yang tersedia di system kami, dengan system jackpot terbaru dan pertama di indonesia, anda dapat membeli jackpot dengan harga 100 rupiah saja dan menangkan hadiahnya hingga puluhan juta rupiah.

Jackpot bukanlah suatu keharusan untuk dibeli, namun kami memberikan suatu fitur tambahan untuk member tercinta dari www.999naga.net.

Terdapat tiga pilihan harga jackpot yang bisa anda beli yaitu :100,500 dan 1000 rupiah.

Hadiah dari Multi jackpot system www.999naga.net

  1. Murni Kecil x 50 harga jackpot yang anda beli.
      (contoh:anda membeli 1000 maka:1000 X 50 = 50.000)
  2. Murni Besar x 50 harga jackpot yang anda beli
      (contoh:anda membeli 1000 maka:1000 X 50 = 50.000)
  3. BALAK x 100 harga jackpot yang anda beli
      (contoh:anda membeli 1000 maka:1000 X 100 = 100.000)
  4. ENAM DEWA x 6666 harga jackpot yang anda beli
      (contoh:anda membeli 1000 maka:1000 X 6666 = 6.666.000)

Demikian adalah penjelasan dari Multi Jackpot www.999naga.net terima kasih dan selamat bermain salam hoki dari kami

Domino Jackpot Winner

TOP ENAM DEWA
No.TanggalNamaPriceWin
117/07 01:12CHALISA99murni enam6,666,000
217/07 01:10HERI77ANDAmurni enam6,666,000
317/07 00:24NDUT0111murni enam3,333,000
416/07 23:33NUYSIGOTEmurni enam6,666,000
516/07 22:33SASTROPmurni enam6,666,000
TOP BALAK
No.TanggalNamaPriceWin
117/07 01:21DOPA86balak10,000
217/07 01:19FERIAN72balak100,000
317/07 01:18MEDED100balak100,000
417/07 01:18MALVIN666balak10,000
517/07 01:17KIJOJOBODObalak100,000
LATEST JACKPOT
No.TanggalNamaPriceWin
117/07 01:24FCPORTOmurni kecil25,000
217/07 01:24ALIFKA21lucky9925,000
317/07 01:24PRIYA20murni kecil50,000
417/07 01:24SAKOY82murni besar50,000
517/07 01:23SILINGKEmurni besar50,000
617/07 01:23F5F753FAmurni besar25,000
717/07 01:23CLVFQPJA4Ymurni besar25,000
817/07 01:22KEMEMAJAmurni besar25,000
917/07 01:22BALANDO87murni kecil25,000
1017/07 01:22DIREKTUR03murni kecil25,000
1117/07 01:22BDHGlucky992,500
1217/07 01:22TSAMUD99murni kecil50,000
1317/07 01:21ZEBLAK76murni kecil50,000
1417/07 01:21DOPA86balak10,000
1517/07 01:21RATTIH99murni kecil25,000
1617/07 01:21WLHAQZ5LVHmurni kecil25,000
1717/07 01:21DIJAMINAS4murni besar5,000
1817/07 01:20KUMIKO47murni kecil50,000
1917/07 01:20DWBTILL90murni kecil25,000
2017/07 01:20GONYENGJRmurni kecil50,000
2117/07 01:20FERMAN21murni kecil50,000
2217/07 01:19TJ0609murni besar50,000
2317/07 01:19KINANDARmurni besar25,000
2417/07 01:19ROYSEDERHAmurni besar25,000
2517/07 01:19AMPEANmurni besar50,000
2617/07 01:19FERIAN72balak100,000
2717/07 01:18MPANGGA899murni besar25,000
2817/07 01:18AREYAmurni besar25,000
2917/07 01:18MEDED100balak100,000
3017/07 01:18MALVIN666balak10,000
3117/07 01:18ROBI857murni besar50,000
3217/07 01:18EMON168murni besar50,000
3317/07 01:17KIJOJOBODObalak100,000
3417/07 01:17LEKRUNmurni kecil50,000
3517/07 01:17SJPOKER035murni kecil5,000
3617/07 01:16AZCA82balak50,000
3717/07 01:16LOVINTONbalak50,000
3817/07 01:16MBOGEMmurni besar25,000
3917/07 01:15DIKT4TOR99murni besar25,000
4017/07 01:15RSNASPTN23balak100,000
4117/07 01:15INDIGO02murni besar5,000
4217/07 01:15SERDA753murni besar25,000
4317/07 01:14R3KQSDYZ6Vmurni kecil25,000
4417/07 01:14PRIKIETIEWbalak100,000
4517/07 01:14COMETBULUKmurni kecil5,000
4617/07 01:14RONY194murni kecil5,000
4717/07 01:14DWTMILD12murni kecil50,000
4817/07 01:14DM93753murni besar50,000
4917/07 01:14SHILA17balak50,000
5017/07 01:14ENTOY99murni kecil50,000

Ceme Multi Jackpot System

Jackpot dilihat dari gabungan kartu pemain dengan kartu bandar. Bandar harus membeli jackpot sebanyak jumlah player yang sedang duduk. Sebagai contoh bila terdapat 3 pemain duduk bermain, dan bandar memutuskan untuk membeli jackpot Rp 1.000, maka pada periode tersebut bandar akan membeli jackpot sebanyak 3xRp1.000 = Rp3.000.

Jackpot bukanlah suatu keharusan untuk dibeli, namun kami memberikan suatu fitur tambahan untuk member tercinta dari www.999naga.net.

Terdapat tiga pilihan harga jackpot yang bisa anda beli yaitu :100,500 dan 1000 rupiah.

Hadiah dari Multi jackpot system www.999naga.net

  1. Murni Kecil x 50 harga jackpot yang anda beli.
      (contoh:anda membeli 1000 maka:1000 X 50 = 50.000)
  2. Murni Besar x 50 harga jackpot yang anda beli
      (contoh:anda membeli 1000 maka:1000 X 50 = 50.000)
  3. BALAK x 200 harga jackpot yang anda beli
      (contoh:anda membeli 1000 maka:1000 X 200 = 200.000)
  4. ENAM DEWA x 6666 harga jackpot yang anda beli
      (contoh:anda membeli 1000 maka:1000 X 6666 = 6.666.000)

Demikian adalah penjelasan dari Multi Jackpot www.999naga.net terima kasih dan selamat bermain salam hoki dari kami

Ceme Jackpot Winner

TOP ENAM DEWA
No.TanggalNamaPriceWin
117/07 01:13WPSHEADSODmurni enam6,666,000
217/07 01:07CEPOTSMILEmurni enam6,666,000
317/07 01:07ANTENA69murni enam6,666,000
417/07 01:04WPSHEADSODmurni enam6,666,000
517/07 01:04CHENZEEmurni enam666,600
TOP BALAK
No.TanggalNamaPriceWin
117/07 01:25DONAL43balak100,000
217/07 01:24PASRAH_123balak200,000
317/07 01:24VEXA22balak20,000
417/07 01:24LANCARIN99balak200,000
517/07 01:24EMAN972balak20,000
LATEST JACKPOT
No.TanggalNamaPriceWin
117/07 01:25SYITA93murni kecil50,000
217/07 01:25DONAL43balak100,000
317/07 01:25MURNY88murni kecil50,000
417/07 01:25D4C6574Amurni kecil50,000
517/07 01:24BP883861murni kecil50,000
617/07 01:24HARSONO16murni kecil50,000
717/07 01:24PASRAH_123balak200,000
817/07 01:24AP4AM4murni kecil50,000
917/07 01:24NOVALZ123murni kecil50,000
1017/07 01:24LURUKOYO66murni kecil25,000
1117/07 01:24VEXA22balak20,000
1217/07 01:24TOBATCEMEmurni besar50,000
1317/07 01:24DBPVTPK7KFmurni besar5,000
1417/07 01:24LEST1982murni kecil50,000
1517/07 01:24LANCARIN99balak200,000
1617/07 01:24EMAN972balak20,000
1717/07 01:24PASRAH_123murni kecil50,000
1817/07 01:24HHHC2XJ7M3murni kecil50,000
1917/07 01:23TOKDUITbalak100,000
2017/07 01:23RAFA147balak200,000
2117/07 01:23TOKDUITbalak100,000
2217/07 01:23JOTOS82murni kecil25,000
2317/07 01:23S4PRObalak100,000
2417/07 01:23JOHMUTmurni besar5,000
2517/07 01:23ZIAZIAmurni kecil50,000
2617/07 01:23VARREZmurni besar25,000
2717/07 01:23TRUMP30JTmurni besar50,000
2817/07 01:23SEERBETmurni besar25,000
2917/07 01:23POMPOM1908murni besar50,000
3017/07 01:23SEERBETmurni besar25,000
3117/07 01:23PUMZSKINZmurni besar50,000
3217/07 01:23BUDAIRImurni besar50,000
3317/07 01:23LAHTAZAN18murni kecil50,000
3417/07 01:23PER99OHOKmurni kecil50,000
3517/07 01:23SEERBETbalak100,000
3617/07 01:23AZAT4321balak20,000
3717/07 01:23K4C3balak200,000
3817/07 01:23DPY2002balak20,000
3917/07 01:23KALERA_55murni besar50,000
4017/07 01:22STAR6murni besar50,000
4117/07 01:22PXPTSRS1NOmurni besar50,000
4217/07 01:22PETOUDINmurni besar50,000
4317/07 01:22TOKDUITmurni kecil25,000
4417/07 01:22MIYAKO25balak20,000
4517/07 01:22CB77MENANGAN69murni besar50,000
4617/07 01:22ARDHA18murni besar5,000
4717/07 01:22DKP159murni besar50,000
4817/07 01:22R3012murni besar50,000
4917/07 01:21MALOLEY07murni besar5,000
5017/07 01:21DONAL43murni kecil25,000